User: anonymous   Login
Location: Clinton NY
(43.0598°N, 75.3602°W)
Time: 19:08:45
(UTC-04:00)
Language:

Iridium 11 - Orbit

View from above orbital plane
View from above orbital plane
View from above satellite
View from above satellite

Ground track
Ground track

The orbit data is extracted from the following two-line orbital elements,

1 25578U 98074B   15183.52522963  .00000021  00000-0  44937-6 0  9993
2 25578 086.3963 194.7487 0002530 091.1695 072.0487 14.34216636874828
Epoch (UTC): 02 July 2015 12:36:19
Eccentricity: 0.0002530
inclination: 86.3963°
perigee height: 776 km
apogee height: 779 km
right ascension of ascending node: 194.7487°
argument of perigee: 91.1695°
revolutions per day: 14.34216636
mean anomaly at epoch: 72.0487°
orbit number at epoch: 87482

The dashed part of the orbit path shows where the satellite is in the earth's shadow,  

DLR